Volver al catálogo

NOAA 16 DEB

ActivoPO
NORAD 41231·DEBRIS·🇺🇸 United States

Lanzado Sep 21, 2000 desde Vandenberg Space Force Base

Loading…

Próximos Pases (próximas 24 horas)

TLE

ActualizadoSource: Space-Track

Época: Sep 13, 2026, 04:32 UTC

1 41231U 00055EL  26256.18895133  .00006679  00000-0  11596-2 0  9992
2 41231  98.9284 158.8641 0036989  61.3177 299.1736 14.68120410563273

Sigue NOAA 16 DEB en tiempo real con AllMySat

Download on the App Store